Kenai, AK

5:45 PM AKST on February 23, 2017 (GMT -0900)
Kenai Municipal

Weather History for PAEN - January, 2012

Change the Weather History Date:

Monday, January 9, 2012

  Actual Average Record
Temperature  
Mean Temperature -8 °F -  
Max Temperature 9 °F 20 °F 41 °F (1955)
Min Temperature -24 °F 2 °F -40 °F (1975)
Degree Days  
Heating Degree Days 73    
Moisture  
Dew Point -6 °F    
Average Humidity 84    
Maximum Humidity 91    
Minimum Humidity 77    
Precipitation  
Precipitation 0.00 in - - ()
Sea Level Pressure  
Sea Level Pressure 30.09 in    
Wind  
Wind Speed 8 mph (NNE)    
Max Wind Speed 28 mph    
Max Gust Speed 33 mph    
Visibility 7 miles    
Events Snow    
Averages and records for this station are not official NWS values.
T = Trace of Precipitation, MM = Missing Value Source: NWS Daily Summary

Daily Weather History Graph

Daily Weather History Graph

Search for Another Location

Airport or City:

Trip Planner

Search our weather history database for the weather conditions in past years. The results will help you decide how hot, cold, wet, or windy it might be!

Date:

Astronomy

Jan. 09, 2012 Rise Set
Actual Time 10:05 AM AKST 4:18 PM AKST
Civil Twilight 9:09 AM AKST 5:15 PM AKST
Nautical Twilight 8:13 AM AKST 6:11 PM AKST
Astronomical Twilight 7:21 AM AKST 7:03 PM AKST
Moon 5:41 PM AKST (1/9) 9:52 AM AKST (1/9)
Length of Visible Light 8h 05m
Length of Day
6h 12m
Full, 100% of the Moon is Illuminated
Jan 9
Full
Jan 16
Last Quarter
Jan 22
New
Jan 30
First Quarter
Feb 7
Full

Hourly Weather History & Observations

Time (AKST) Temp. Windchill Dew Point Humidity Pressure Visibility Wind Dir Wind Speed Gust Speed Precip Events Conditions
12:53 AM 1.9 °F -9.2 °F -0.9 °F 88% 29.78 in 10.0 mi NW 5.8 mph - N/A   Clear
1:53 AM -6.0 °F - -9.9 °F 83% 29.82 in 10.0 mi Calm Calm - N/A   Clear
3:53 AM -13.0 °F - -17.0 °F 82% 29.92 in 10.0 mi Calm Calm - N/A   Clear
4:53 AM -15.0 °F - -17.0 °F 91% 29.96 in 10.0 mi Calm Calm - N/A   Clear
5:53 AM -17.0 °F -27.2 °F -20.9 °F 82% 30.00 in 10.0 mi South 3.5 mph - N/A   Clear
6:53 AM -14.8 °F -27.2 °F -18.4 °F 84% 30.03 in 10.0 mi South 4.6 mph - N/A   Clear
7:53 AM -9.0 °F - -11.9 °F 87% 30.05 in 10.0 mi Calm Calm - N/A   Clear
8:53 AM -18.0 °F - -22.0 °F 82% 30.09 in 10.0 mi Calm Calm - N/A   Clear
9:53 AM -24.0 °F - -27.0 °F 86% 30.15 in 10.0 mi Calm Calm - N/A   Clear
10:53 AM -18.9 °F -34.0 °F -22.0 °F 86% 30.16 in 10.0 mi NNE 5.8 mph - N/A   Clear
11:53 AM -17.0 °F -29.7 °F -20.9 °F 82% 30.19 in 10.0 mi NE 4.6 mph - N/A   Clear
11:57 AM -18.4 °F -28.9 °F -20.2 °F 91% 30.17 in 2.5 mi NE 3.5 mph - N/A   Partly Cloudy
12:04 PM -14.8 °F -24.8 °F -20.2 °F 77% 30.18 in 10.0 mi NE 3.5 mph - N/A   Partly Cloudy
12:53 PM -9.0 °F -23.8 °F -14.1 °F 79% 30.20 in 10.0 mi North 6.9 mph - N/A   Partly Cloudy
1:53 PM -7.1 °F -18.1 °F -9.9 °F 87% 30.21 in 10.0 mi NNE 4.6 mph - N/A   Clear
2:53 PM -0.9 °F -15.3 °F -5.1 °F 83% 30.20 in 10.0 mi North 8.1 mph - N/A   Overcast
3:53 PM 3.0 °F -12.5 °F -0.9 °F 84% 30.19 in 10.0 mi NE 10.4 mph - N/A   Overcast
4:53 PM 6.1 °F -8.7 °F 1.9 °F 83% 30.18 in 10.0 mi NNE 10.4 mph - N/A   Overcast
5:53 PM 8.1 °F -9.6 °F 5.0 °F 87% 30.17 in 10.0 mi North 16.1 mph - N/A   Overcast
6:53 PM 8.1 °F -9.6 °F 3.9 °F 83% 30.16 in 10.0 mi NNE 16.1 mph - N/A   Overcast
7:34 PM 8.6 °F -11.0 °F 3.2 °F 79% 30.12 in 1.8 mi NNE 20.7 mph 28.8 mph 0.00 in Snow Light Snow
7:43 PM 8.6 °F -9.5 °F 3.2 °F 79% 30.12 in 3.0 mi NNE 17.3 mph - 0.00 in Snow Light Snow
7:53 PM 8.1 °F -11.7 °F 3.9 °F 83% 30.13 in 3.0 mi NNE 20.7 mph 27.6 mph 0.00 in Snow Light Snow
8:05 PM 8.6 °F -10.0 °F 3.2 °F 79% 30.11 in 2.5 mi North 18.4 mph - 0.00 in Snow Light Snow
8:36 PM 6.8 °F -14.3 °F 3.2 °F 85% 30.09 in 1.5 mi North 23.0 mph - 0.00 in Snow Light Snow
8:53 PM 7.0 °F -14.0 °F 3.9 °F 87% 30.09 in 3.0 mi North 23.0 mph - 0.00 in Snow Light Snow
9:00 PM 6.8 °F -13.4 °F 3.2 °F 85% 30.08 in 2.0 mi North 20.7 mph - 0.00 in Snow Light Snow
9:18 PM 6.8 °F -15.1 °F 3.2 °F 85% 30.07 in 1.5 mi North 25.3 mph 33.4 mph 0.00 in Snow Light Snow
9:33 PM 6.8 °F -13.8 °F 3.2 °F 85% 30.06 in 2.5 mi NNE 21.9 mph 29.9 mph 0.00 in   Overcast
9:40 PM 6.8 °F -15.9 °F 3.2 °F 85% 30.06 in 3.0 mi North 27.6 mph 32.2 mph 0.00 in   Overcast
9:53 PM 7.0 °F -14.0 °F 3.9 °F 87% 30.06 in 3.0 mi NNE 23.0 mph 29.9 mph 0.00 in   Overcast
10:53 PM 8.1 °F -12.6 °F 3.9 °F 83% 30.03 in 4.0 mi North 23.0 mph 28.8 mph N/A   Overcast
11:53 PM 9.0 °F -10.0 °F 5.0 °F 84% 30.01 in 3.0 mi NNE 19.6 mph 29.9 mph 0.00 in   Overcast